Location: Skalnate Pleso
(49.1889°N, 20.2450°E)
Time: 03:51:08
(UTC+02:00)

COSMOS 2428 - Pass Details

Date: 01 March 2020
Orbit: 846 x 856 km, 70.9° (Epoch: 08 April)

Event Time Altitude Azimuth Distance (km) Brightness Sun altitude
Exits shadow 02:52:22 11° 340° (NNW) 2,395 5.1 -33.7°
Drops below altitude 10° 02:53:53 10° 355° (N) 2,500 5.4 -33.5°
Sets 02:58:25 0° 28° (NNE) 3,438 6.7 -32.8°
